KENT RIDGE 1 (41167 NORAD) Tracking and Keplerian Element Data

This shows tracking and keplerian element data for the satellite.

Feedback or suggestion? Click here.




ElementValue
Catalog41167
NameKENT RIDGE 1
Epoch Orbit14239
Epoch Day196.23718692
Epoch Year2018
RAAN201.5151
Inclination14.9798
Eccentricity0.0011589
Argument of Perigee20.0194
Mean Anonmoly71.3091
Mean Motion15.0891239
Decay Rate8.72E-06
L11 41167U 15077B 18196.23718692 .00000872 00000-0 13324-4 0 9996
L22 41167 14.9798 201.5151 0011589 20.0194 71.3091 15.08912390142392

Live tracking and technical data element details for KENT RIDGE 1 (NORAD 41167). KENT RIDGE 1 can be tracked NOW for your location showing map with azimuth and elevation plus other details from your city location.

Track the satellite on the map from your city or location and see movement details for azimuth, elevation, latitude, longitude, range, height, and movement on the map or in text.







IsCatalogInMostPopularTable: catalog: 41167, numindb: 51
Update: records affected: 1



GetName: 41167 KENT RIDGE 1

Hit Count: updated at: Sun, 15 Jul 2018 22:59:05 GMT